Crosby, ND

8:53 AM CST on November 15, 2019 (GMT -0600)
Crosby

Weather History for KD50 - September, 2019

Change the Weather History Date:

Monday, September 30, 2019

  Actual Average (WUND) Record (WUND)
Temperature  
Mean Temperature 38 °F -  
Max Temperature 41 °F - - (-1)
Min Temperature 35 °F - - (-1)
Degree Days  
Heating Degree Days 27    
Moisture  
Dew Point 37 °F    
Average Humidity 100    
Maximum Humidity 100    
Minimum Humidity 93    
Precipitation  
Precipitation 0.00 in - - ()
Sea Level Pressure  
Sea Level Pressure 29.99 in    
Wind  
Wind Speed 11 mph (North)    
Max Wind Speed 18 mph    
Max Gust Speed 22 mph    
Visibility 4 miles    
Events Rain    
Averages and records for this station are not official NWS values.
T = Trace of Precipitation, MM = Missing Value Source: NWS Daily Summary

Daily Weather History Graph

Daily Weather History Graph

Search for Another Location

Airport or City:

Astronomy

Sep. 30, 2019 Rise Set
Actual Time 7:51 AM CDT 7:34 PM CDT
Civil Twilight 7:19 AM CDT 8:05 PM CDT
Nautical Twilight 6:42 AM CDT 8:42 PM CDT
Astronomical Twilight 6:05 AM CDT 9:20 PM CDT
Moon 10:05 AM CDT (9/30) 9:00 PM CDT (9/30)
Length of Visible Light 12h 46m
Length of Day
11h 43m
Waxing Crescent, 6% of the Moon is Illuminated
Sep 30
Waxing Crescent
Oct 5
First Quarter
Oct 13
Full
Oct 21
Last Quarter
Oct 27
New

Hourly Weather History & Observations

Time (CDT) Temp. Windchill Dew Point Humidity Pressure Visibility Wind Dir Wind Speed Gust Speed Precip Events Conditions
12:15 AM 37.4 °F 28.9 °F 37.4 °F 100% 29.93 in 3.0 mi NE 13.8 mph - N/A   Overcast
12:35 AM 37.4 °F 28.9 °F 37.4 °F 100% 29.93 in 3.0 mi NE 13.8 mph - N/A   Overcast
12:55 AM 37.4 °F 29.8 °F 37.4 °F 100% 29.95 in 1.8 mi ENE 11.5 mph 18.4 mph N/A   Overcast
1:15 AM 37.4 °F 28.9 °F 37.4 °F 100% 29.98 in 1.5 mi East 13.8 mph - N/A   Overcast
1:35 AM 37.4 °F 29.3 °F 37.4 °F 100% 29.95 in 1.2 mi ENE 12.7 mph - N/A   Light Drizzle
1:55 AM 37.4 °F 28.5 °F 37.4 °F 100% 29.93 in 1.5 mi ENE 15.0 mph - N/A   Overcast
2:15 AM 37.4 °F 29.8 °F 37.4 °F 100% 29.93 in 1.5 mi ENE 11.5 mph - N/A   Overcast
2:35 AM 37.4 °F 30.3 °F 37.4 °F 100% 29.95 in 2.0 mi ENE 10.4 mph - N/A   Overcast
2:55 AM 37.4 °F 29.3 °F 37.4 °F 100% 29.93 in 2.0 mi ENE 12.7 mph 21.9 mph N/A   Overcast
3:15 AM 37.4 °F 29.8 °F 37.4 °F 100% 29.95 in 5.0 mi NE 11.5 mph - N/A   Overcast
3:35 AM 37.4 °F 29.3 °F 37.4 °F 100% 29.96 in 3.0 mi NE 12.7 mph 18.4 mph N/A   Overcast
3:55 AM 37.4 °F 28.2 °F 37.4 °F 100% 29.93 in 2.5 mi ENE 16.1 mph - N/A   Overcast
4:15 AM 35.6 °F 25.2 °F 35.6 °F 100% 29.92 in 2.5 mi ENE 18.4 mph - N/A   Overcast
4:35 AM 37.4 °F 28.9 °F 37.4 °F 100% 29.94 in 5.0 mi ENE 13.8 mph 21.9 mph N/A   Overcast
4:55 AM 37.4 °F 29.8 °F 37.4 °F 100% 29.95 in 2.5 mi ENE 11.5 mph 18.4 mph N/A   Overcast
5:15 AM 37.4 °F 28.5 °F 37.4 °F 100% 29.92 in 1.2 mi ENE 15.0 mph - N/A   Overcast
5:35 AM 37.4 °F 29.3 °F 37.4 °F 100% 29.93 in 1.2 mi NE 12.7 mph - N/A   Overcast
5:55 AM 35.6 °F 26.6 °F 35.6 °F 100% 29.92 in 1.5 mi ENE 13.8 mph 20.7 mph N/A   Overcast
6:15 AM 35.6 °F 27.1 °F 35.6 °F 100% 29.91 in 1.5 mi NE 12.7 mph - N/A   Overcast
6:35 AM 35.6 °F 27.5 °F 35.6 °F 100% 29.95 in 1.8 mi ENE 11.5 mph - N/A   Overcast
6:55 AM 35.6 °F 28.0 °F 35.6 °F 100% 29.95 in 1.8 mi ENE 10.4 mph - N/A   Overcast
7:15 AM 35.6 °F 28.0 °F 35.6 °F 100% 29.94 in 1.5 mi ENE 10.4 mph - N/A   Overcast
7:35 AM 35.6 °F 28.0 °F 35.6 °F 100% 29.94 in 2.0 mi NE 10.4 mph - N/A   Overcast
7:55 AM 35.6 °F 31.7 °F 35.6 °F 100% 29.96 in 3.0 mi NE 4.6 mph - N/A   Overcast
8:15 AM 35.6 °F 29.2 °F 35.6 °F 100% 29.95 in 1.2 mi NE 8.1 mph - N/A   Overcast
8:35 AM 35.6 °F 28.0 °F 35.6 °F 100% 29.94 in 1.0 mi NE 10.4 mph - N/A   Overcast
8:55 AM 35.6 °F 29.9 °F 35.6 °F 100% 29.95 in 1.0 mi ENE 6.9 mph 12.7 mph N/A   Overcast
9:15 AM 35.6 °F 29.9 °F 35.6 °F 100% 29.96 in 0.8 mi NE 6.9 mph - N/A   Overcast
9:35 AM 35.6 °F 29.2 °F 35.6 °F 100% 29.96 in 1.5 mi NE 8.1 mph - N/A   Overcast
9:55 AM 35.6 °F 28.6 °F 35.6 °F 100% 29.95 in 1.5 mi NE 9.2 mph - N/A   Overcast
10:15 AM 35.6 °F 29.2 °F 35.6 °F 100% 29.97 in 3.0 mi NNE 8.1 mph - N/A   Overcast
10:55 AM 35.6 °F 29.2 °F 35.6 °F 100% 29.96 in 1.0 mi North 8.1 mph - N/A   Overcast
11:15 AM 35.6 °F 28.6 °F 35.6 °F 100% 29.97 in 0.5 mi North 9.2 mph - N/A   Overcast
11:35 AM 35.6 °F 30.7 °F 35.6 °F 100% 29.98 in 1.2 mi NNE 5.8 mph - N/A   Overcast
11:55 AM 35.6 °F 27.5 °F 35.6 °F 100% 29.95 in 2.0 mi North 11.5 mph - N/A   Mostly Cloudy
12:15 PM 37.4 °F 32.1 °F 37.4 °F 100% 29.99 in 3.0 mi NNE 6.9 mph - N/A   Mostly Cloudy
12:35 PM 37.4 °F 32.8 °F 37.4 °F 100% 29.98 in 8.0 mi North 5.8 mph - N/A   Overcast
12:55 PM 37.4 °F 30.8 °F 37.4 °F 100% 29.98 in 1.5 mi North 9.2 mph - N/A   Overcast
1:15 PM 37.4 °F 33.8 °F 37.4 °F 100% 29.99 in 1.5 mi North 4.6 mph - N/A   Overcast
1:35 PM 37.4 °F 32.8 °F 37.4 °F 100% 29.98 in 1.0 mi North 5.8 mph - N/A   Overcast
1:55 PM 37.4 °F 31.4 °F 37.4 °F 100% 29.99 in 1.2 mi NNW 8.1 mph - N/A   Overcast
2:15 PM 37.4 °F 32.1 °F 37.4 °F 100% 29.98 in 1.2 mi NNW 6.9 mph - N/A   Overcast
2:35 PM 35.6 °F 31.7 °F 35.6 °F 100% 29.98 in 2.5 mi NNW 4.6 mph - N/A Rain Light Rain
2:55 PM 37.4 °F 32.8 °F 37.4 °F 100% 29.99 in 5.0 mi NW 5.8 mph - N/A   Light Drizzle
3:15 PM 37.4 °F 33.8 °F 37.4 °F 100% 29.99 in 6.0 mi WNW 4.6 mph - N/A Rain Light Rain
3:35 PM 37.4 °F 31.4 °F 37.4 °F 100% 30.00 in 4.0 mi West 8.1 mph - N/A Rain Light Rain
3:55 PM 35.6 °F 28.6 °F 35.6 °F 100% 30.01 in 4.0 mi WNW 9.2 mph - N/A Rain Light Rain
4:15 PM 37.4 °F 32.1 °F 37.4 °F 100% 30.01 in 4.0 mi West 6.9 mph - N/A Rain Light Rain
4:35 PM 37.4 °F 31.4 °F 37.4 °F 100% 30.01 in 3.0 mi WNW 8.1 mph - N/A   Mostly Cloudy
4:55 PM 39.2 °F 33.6 °F 39.2 °F 100% 30.02 in 9.0 mi WNW 8.1 mph - N/A   Overcast
5:15 PM 39.2 °F 32.5 °F 39.2 °F 100% 30.02 in 10.0 mi NW 10.4 mph - N/A   Overcast
5:35 PM 39.2 °F 32.0 °F 39.2 °F 100% 30.02 in 10.0 mi WNW 11.5 mph - N/A   Overcast
5:55 PM 41.0 °F 34.7 °F 41.0 °F 100% 30.03 in 10.0 mi WNW 10.4 mph - N/A   Overcast
6:15 PM 41.0 °F 35.2 °F 39.2 °F 93% 30.03 in 10.0 mi WNW 9.2 mph 15.0 mph N/A   Overcast
6:35 PM 39.2 °F 33.0 °F 39.2 °F 100% 30.04 in 10.0 mi NW 9.2 mph - N/A   Overcast
6:55 PM 39.2 °F 34.2 °F 39.2 °F 100% 30.04 in 10.0 mi NW 6.9 mph - N/A   Overcast
7:15 PM 39.2 °F 35.0 °F 39.2 °F 100% 30.05 in 9.0 mi WNW 5.8 mph - N/A   Overcast
7:35 PM 39.2 °F 34.2 °F 39.2 °F 100% 30.06 in 5.0 mi NW 6.9 mph - N/A   Overcast
7:55 PM 39.2 °F 34.2 °F 39.2 °F 100% 30.07 in 3.0 mi WNW 6.9 mph - N/A   Overcast
8:15 PM 39.2 °F 35.9 °F 39.2 °F 100% 30.08 in 7.0 mi NW 4.6 mph - N/A   Overcast
8:35 PM 39.2 °F 33.6 °F 39.2 °F 100% 30.08 in 5.0 mi NW 8.1 mph - N/A   Overcast
8:55 PM 39.2 °F 34.2 °F 39.2 °F 100% 30.09 in 6.0 mi WNW 6.9 mph - N/A   Overcast
9:15 PM - - - N/A% 30.10 in 5.0 mi NW 6.9 mph - N/A   Overcast
9:35 PM 37.4 °F 32.1 °F 37.4 °F 100% 30.10 in 8.0 mi WNW 6.9 mph - N/A   Overcast
9:55 PM 37.4 °F 32.1 °F 37.4 °F 100% 30.11 in 6.0 mi West 6.9 mph - N/A   Overcast
10:15 PM 37.4 °F 31.4 °F 37.4 °F 100% 30.11 in 9.0 mi West 8.1 mph - N/A   Overcast
10:35 PM 37.4 °F 32.1 °F 37.4 °F 100% 30.11 in 8.0 mi West 6.9 mph - N/A   Overcast
10:55 PM 37.4 °F 32.1 °F 37.4 °F 100% 30.11 in 10.0 mi West 6.9 mph - N/A   Overcast
11:15 PM 37.4 °F 32.8 °F 37.4 °F 100% 30.11 in 10.0 mi West 5.8 mph - N/A   Overcast
11:35 PM 37.4 °F 32.1 °F 37.4 °F 100% 30.11 in 10.0 mi WNW 6.9 mph - N/A   Overcast
11:55 PM 37.4 °F 32.1 °F 37.4 °F 100% 30.11 in 10.0 mi WNW 6.9 mph - N/A   Overcast